Regional Weather Roundup
Issued by NWS New Orleans/Baton Rouge, LA

Home | Current Version | Previous Version | Graphics & Text | Print | Product List | Glossary On
Versions: 1 2 3 4 5 6 7 8 9 10 11 12 13 14 15 16 17 18 19 20 21 22 23 24 25 26 27 28 29 30 31 32 33 34 35 36 37 38 39 40 41 42 43 44 45 46 47 48 49 50
952
ASUS44 KLIX 220405
RWRLIX
NEW ORLEANS REGIONAL WEATHER ROUNDUP
NATIONAL WEATHER SERVICE NEW ORLEANS LA
1100 PM CDT THU AUG 21 2014

NOTE: "FAIR" INDICATES FEW OR NO CLOUDS BELOW 12,000 FEET WITH NO
      SIGNIFICANT WEATHER AND/OR OBSTRUCTIONS TO VISIBILITY.
      SKY/WX - SKY CONDITION AND SIGNIFICANT WEATHER.
      TMP - AIR TEMPERATURE.     DP    - DEWPOINT TEMPERATURE.
      RH  - RELATIVE HUMIDITY.   PRES  - PRESSURE.
      HI  - HEAT INDEX.          WCI   - WIND CHILL INDEX.

*  THESE STATIONS ARE NOT NWS OR FAA STATIONS AND ARE NOT UNDER
   NWS QUALITY CONTROL.

LAZ038-040-048-061>063-065>067-069-220500-
SOUTHEAST LOUISIANA

CITY           SKY/WX    TMP DP  RH WIND       PRES   REMARKS
N.O. AUDUBON   NOT AVBL
N.O. INTL ARPT MOCLDY    79  74  84 SW3       30.12R
N.O. LAKEFRONT MOCLDY    83  76  79 NW3       30.12S
N.O. DOWNTOWN*   N/A     82  70  65 CALM      30.13R
SLIDELL        CLOUDY    79  74  84 CALM      30.11S
BATON ROUGE    PTCLDY    76  74  93 CALM      30.11S
BOOTHVILLE     CLEAR     82  79  90 CALM      30.13R
BELLE CHASSE   MOCLDY    76  72  87 CALM      30.12R
BOGALUSA*        N/A     79  73  82 SW3       30.12S
GALLIANO*      NOT AVBL
NEW ROADS*       N/A     74  73  97 CALM      30.10F
GONZALES*        N/A     76  76 100 CALM      30.11S
HAMMOND*       MOCLDY    75  72  88 CALM      30.12S
HOUMA*         PTCLDY    75  72  88 CALM      30.13R
PORT FOURCHON* PTCLDY    84  77  79 W3        30.14S

$$

MSZ070-080>082-220500-
SOUTHERN MISSISSIPPI

CITY           SKY/WX    TMP DP  RH WIND       PRES   REMARKS
MCCOMB         CLOUDY    77  74  90 CALM      30.12S
GULFPORT       CLOUDY    82  76  81 W3        30.11R
BILOXI         MOCLDY    84  77  80 VRB3      30.11R
PASCAGOULA     PTCLDY    78  76  93 CALM      30.11S

$$

COASTAL OBSERVATIONS
LAKE AND NEARSHORE STATIONS

STATION/POSITION TIME  TEMP    WIND        PRES    WAVE
                       AIR SEA DIR/SP/G            HT/PER
                 (UTC) (F)     (DEG/KT/KT) (MB)    (FT/S)
PASCAGOULA       0400   87     220/  6/  8 1019.0
WAVELAND YACHT   0400   82     280/  3/  5 1019.1
GRAND ISLE       0400   85 90  340/  2/  4 1020.6
SOUTHWEST PASS   0400   85 88  200/  2/  3 1020.5
NEW CANAL        0400   82 85  200/  3/  4 1020.1
SHELL BEACH      0400   80 82  250/  6/  7 1019.7

OFFSHORE STATIONS

STATION/POSITION TIME  TEMP    WIND        PRES    WAVE
                       AIR SEA DIR/SP/G            HT/PER
                 (UTC) (F)     (DEG/KT/KT) (MB)    (FT/S)
64 S DAUPHIN ISL 0348   86 89  200/  4/  6 1020.1

$$




USA.gov is the U.S. government's official web portal to all federal, state and local government web resources and services.